EJU58TS EGPH-ENGM

Flight info

Callsign EJU58TS
Flight time N/A
Altitude 37000
Route GRICE4D GRICE P600 ASNUD DCT LESNI DCT KLONN DCT ADOPI ADOPI3L
Aircraft A320/M-SDE3FGHIRWY/LB1

Departure

Time 2026-04-25 18:37
Airport Edinburgh Airport (EGPH)

Arrival

Time N/A
Airport Oslo-Gardermoen International Airport (ENGM)
Time Latitude Longitude Altitude Speed Heading
2026-04-25 18:02 55.94903 -3.36492 107 ft 0 kts 147°
2026-04-25 18:26 55.94905 -3.36493 106 ft 1 kts 147°
2026-04-25 18:26 55.94919 -3.36509 106 ft 3 kts 148°
2026-04-25 18:26 55.94934 -3.36527 105 ft 3 kts 153°
2026-04-25 18:26 55.94952 -3.36537 104 ft 3 kts 185°
2026-04-25 18:27 55.94968 -3.36528 106 ft 3 kts 228°
2026-04-25 18:27 55.94974 -3.36516 103 ft 0 kts 238°
2026-04-25 18:30 55.94972 -3.36520 104 ft 3 kts 238°
2026-04-25 18:30 55.94945 -3.36602 105 ft 8 kts 239°
2026-04-25 18:31 55.94920 -3.36677 106 ft 8 kts 239°
2026-04-25 18:31 55.94909 -3.36807 106 ft 12 kts 307°
2026-04-25 18:31 55.94911 -3.36939 103 ft 12 kts 242°
2026-04-25 18:31 55.94872 -3.37052 105 ft 9 kts 237°
2026-04-25 18:32 55.94843 -3.37141 105 ft 8 kts 239°
2026-04-25 18:32 55.94801 -3.37264 105 ft 18 kts 238°
2026-04-25 18:32 55.94743 -3.37434 109 ft 14 kts 238°
2026-04-25 18:32 55.94698 -3.37568 111 ft 11 kts 239°
2026-04-25 18:33 55.94665 -3.37665 113 ft 9 kts 239°
2026-04-25 18:33 55.94615 -3.37814 112 ft 15 kts 238°
2026-04-25 18:33 55.94560 -3.37973 111 ft 14 kts 239°
2026-04-25 18:33 55.94509 -3.38123 111 ft 15 kts 239°
2026-04-25 18:34 55.94460 -3.38269 112 ft 12 kts 238°
2026-04-25 18:34 55.94422 -3.38379 113 ft 9 kts 239°
2026-04-25 18:34 55.94383 -3.38497 115 ft 18 kts 240°
2026-04-25 18:34 55.94341 -3.38621 116 ft 8 kts 238°
2026-04-25 18:35 55.94316 -3.38695 116 ft 8 kts 239°
2026-04-25 18:35 55.94288 -3.38845 120 ft 13 kts 289°
2026-04-25 18:35 55.94327 -3.38907 120 ft 0 kts 330°
2026-04-25 18:35 55.94368 -3.38950 118 ft 15 kts 330°
2026-04-25 18:36 55.94435 -3.38905 118 ft 0 kts 60°
2026-04-25 18:36 55.94435 -3.38904 118 ft 1 kts 60°
2026-04-25 18:37 55.94524 -3.38645 113 ft 61 kts 58°
2026-04-25 18:37 55.94852 -3.37679 113 ft 121 kts 59°
2026-04-25 18:37 55.95366 -3.36175 322 ft 149 kts 58°
2026-04-25 18:37 55.95897 -3.34624 1123 ft 147 kts 59°
2026-04-25 18:38 55.96651 -3.33204 1544 ft 171 kts 47°
2026-04-25 18:38 55.97585 -3.31652 1864 ft 193 kts 46°
2026-04-25 18:38 55.98651 -3.29935 2151 ft 220 kts 46°
2026-04-25 18:38 55.99877 -3.28055 2619 ft 244 kts 37°
2026-04-25 18:39 56.01508 -3.26984 3310 ft 258 kts
2026-04-25 18:39 56.03290 -3.27462 4148 ft 261 kts 334°
2026-04-25 18:39 56.04701 -3.29378 5052 ft 259 kts 305°
2026-04-25 18:39 56.05534 -3.32197 6057 ft 256 kts 293°
2026-04-25 18:40 56.06254 -3.35120 6982 ft 258 kts 293°
2026-04-25 18:40 56.06979 -3.38081 7814 ft 261 kts 293°
2026-04-25 18:40 56.07714 -3.41082 8636 ft 265 kts 293°
2026-04-25 18:40 56.08469 -3.44152 9374 ft 273 kts 291°
2026-04-25 18:41 56.09063 -3.47435 10076 ft 281 kts 283°
2026-04-25 18:41 56.09588 -3.50862 10615 ft 295 kts 286°